DCM6021 KDAL-KNEW

Flight info

Callsign DCM6021
Flight time 0h 57m
Altitude 45000
Route LNDRE5 ZALEA DCT SWEUP DCT LSU AWDAD1
Aircraft C750/M-SBDE3FGHRWXY/S

Departure

Time 2026-04-26 00:01
Airport Dallas Love Field (KDAL)

Arrival

Time 2026-04-26 00:59
Airport Lakefront Airport (KNEW)
Time Latitude Longitude Altitude Speed Heading
2026-04-25 23:58 32.84902 -96.84440 478 ft 0 kts 131°
2026-04-25 23:58 32.84897 -96.84434 478 ft 5 kts 131°
2026-04-25 23:58 32.84838 -96.84367 478 ft 17 kts 140°
2026-04-25 23:58 32.84803 -96.84428 476 ft 18 kts 316°
2026-04-25 23:59 32.84916 -96.84558 478 ft 27 kts 315°
2026-04-25 23:59 32.85049 -96.84711 478 ft 26 kts 316°
2026-04-25 23:59 32.85186 -96.84870 478 ft 28 kts 316°
2026-04-25 23:59 32.85323 -96.85028 478 ft 27 kts 316°
2026-04-26 00:00 32.85459 -96.85180 478 ft 26 kts 318°
2026-04-26 00:00 32.85590 -96.85326 478 ft 25 kts 315°
2026-04-26 00:00 32.85713 -96.85473 478 ft 25 kts 314°
2026-04-26 00:00 32.85768 -96.85611 477 ft 18 kts 232°
2026-04-26 00:01 32.85655 -96.85597 478 ft 32 kts 135°
2026-04-26 00:01 32.85224 -96.85098 483 ft 132 kts 136°
2026-04-26 00:01 32.84574 -96.84320 1156 ft 134 kts 137°
2026-04-26 00:01 32.83831 -96.83545 1665 ft 156 kts 146°
2026-04-26 00:02 32.82991 -96.82649 2421 ft 160 kts 142°
2026-04-26 00:02 32.82186 -96.81772 3433 ft 162 kts 143°
2026-04-26 00:02 32.81274 -96.80806 4019 ft 189 kts 144°
2026-04-26 00:02 32.80259 -96.79712 4867 ft 198 kts 143°
2026-04-26 00:03 32.79217 -96.78587 5728 ft 209 kts 146°
2026-04-26 00:03 32.78089 -96.77387 6051 ft 227 kts 146°
2026-04-26 00:03 32.76876 -96.76085 6022 ft 251 kts 145°
2026-04-26 00:03 32.75578 -96.74635 6025 ft 263 kts 141°
2026-04-26 00:04 32.74226 -96.73042 6431 ft 283 kts 142°
2026-04-26 00:04 32.72806 -96.71436 7458 ft 282 kts 142°
2026-04-26 00:04 32.71374 -96.69795 8432 ft 290 kts 142°
2026-04-26 00:04 32.69922 -96.68089 9452 ft 296 kts 140°
2026-04-26 00:05 32.68701 -96.66050 10148 ft 317 kts 117°
2026-04-26 00:05 32.68207 -96.63379 10420 ft 349 kts 96°
2026-04-26 00:05 32.68163 -96.60377 10600 ft 377 kts 91°
2026-04-26 00:05 32.68183 -96.57194 11117 ft 388 kts 91°
2026-04-26 00:06 32.68129 -96.53981 11820 ft 393 kts 91°
2026-04-26 00:06 32.68319 -96.50706 12415 ft 399 kts 84°
2026-04-26 00:06 32.68584 -96.47406 13141 ft 404 kts 84°
2026-04-26 00:06 32.68846 -96.44071 13858 ft 407 kts 84°
2026-04-26 00:07 32.69102 -96.40756 14508 ft 411 kts 84°
2026-04-26 00:07 32.69367 -96.37358 15167 ft 415 kts 83°
2026-04-26 00:07 32.69624 -96.33930 15809 ft 418 kts 84°
2026-04-26 00:07 32.69504 -96.30451 16390 ft 423 kts 95°
2026-04-26 00:08 32.69239 -96.26953 17105 ft 426 kts 94°
2026-04-26 00:08 32.69014 -96.23430 17799 ft 430 kts 93°
2026-04-26 00:08 32.68801 -96.19863 18448 ft 434 kts 93°
2026-04-26 00:08 32.68564 -96.16317 19079 ft 438 kts 94°
2026-04-26 00:09 32.68308 -96.12688 19714 ft 443 kts 94°
2026-04-26 00:09 32.68062 -96.09024 20375 ft 447 kts 93°
2026-04-26 00:09 32.67820 -96.05317 21043 ft 452 kts 93°
2026-04-26 00:09 32.67569 -96.01579 21700 ft 457 kts 94°
2026-04-26 00:10 32.67308 -95.97795 22356 ft 461 kts 94°
2026-04-26 00:10 32.67050 -95.94032 22999 ft 466 kts 94°
2026-04-26 00:10 32.66788 -95.90173 23596 ft 470 kts 93°
2026-04-26 00:10 32.66522 -95.86288 24131 ft 475 kts 93°
2026-04-26 00:11 32.66254 -95.82360 24659 ft 479 kts 93°
2026-04-26 00:11 32.65980 -95.78402 25190 ft 483 kts 93°
2026-04-26 00:11 32.65698 -95.74405 25710 ft 488 kts 93°
2026-04-26 00:11 32.65410 -95.70374 26243 ft 492 kts 92°
2026-04-26 00:12 32.65122 -95.66283 26589 ft 501 kts 92°
2026-04-26 00:12 32.64833 -95.62144 27138 ft 505 kts 92°
2026-04-26 00:12 32.64538 -95.57980 27650 ft 509 kts 92°
2026-04-26 00:12 32.64234 -95.53772 28150 ft 513 kts 92°
2026-04-26 00:13 32.63928 -95.49534 28648 ft 518 kts 92°
2026-04-26 00:13 32.63624 -95.45320 29121 ft 522 kts 91°
2026-04-26 00:13 32.63313 -95.41011 29603 ft 526 kts 91°
2026-04-26 00:13 32.62998 -95.36669 30024 ft 530 kts 91°
2026-04-26 00:14 32.62680 -95.32300 30456 ft 534 kts 91°
2026-04-26 00:14 32.62353 -95.27881 30685 ft 542 kts 91°
2026-04-26 00:14 32.62021 -95.23423 31292 ft 539 kts 91°
2026-04-26 00:14 32.61688 -95.18992 31937 ft 537 kts 91°
2026-04-26 00:15 32.61360 -95.14561 32533 ft 537 kts 91°
2026-04-26 00:15 32.61040 -95.10217 33137 ft 536 kts 90°
2026-04-26 00:15 32.60709 -95.05818 33753 ft 535 kts 90°
2026-04-26 00:15 32.60373 -95.01430 34299 ft 534 kts 90°
2026-04-26 00:16 32.60038 -94.97031 34856 ft 533 kts 90°
2026-04-26 00:16 32.59706 -94.92663 35477 ft 531 kts 91°
2026-04-26 00:16 32.59371 -94.88317 36099 ft 528 kts 91°
2026-04-26 00:16 32.59036 -94.83971 36663 ft 528 kts 91°
2026-04-26 00:17 32.58696 -94.79689 37210 ft 528 kts 92°
2026-04-26 00:17 32.58005 -94.75341 37758 ft 532 kts 102°
2026-04-26 00:17 32.56898 -94.71215 38357 ft 532 kts 108°
2026-04-26 00:17 32.55602 -94.67103 38836 ft 532 kts 109°
2026-04-26 00:18 32.54369 -94.62960 39253 ft 532 kts 107°
2026-04-26 00:18 32.53267 -94.58764 39631 ft 533 kts 105°
2026-04-26 00:18 32.52140 -94.54568 40006 ft 535 kts 107°
2026-04-26 00:18 32.50914 -94.50419 40580 ft 532 kts 109°
2026-04-26 00:19 32.49692 -94.46278 41043 ft 532 kts 108°
2026-04-26 00:19 32.48535 -94.42113 41488 ft 533 kts 107°
2026-04-26 00:19 32.47385 -94.37935 41931 ft 533 kts 108°
2026-04-26 00:19 32.46192 -94.33783 42377 ft 533 kts 109°
2026-04-26 00:20 32.44980 -94.29634 42808 ft 533 kts 109°
2026-04-26 00:20 32.43795 -94.25471 43245 ft 533 kts 109°
2026-04-26 00:20 32.42625 -94.21313 43674 ft 533 kts 109°
2026-04-26 00:20 32.41434 -94.17157 44140 ft 532 kts 109°
2026-04-26 00:21 32.40234 -94.13019 44604 ft 531 kts 110°
2026-04-26 00:21 32.39042 -94.08876 44821 ft 534 kts 109°
2026-04-26 00:21 32.37842 -94.04675 44825 ft 542 kts 109°
2026-04-26 00:22 32.35383 -93.96162 44830 ft 557 kts 110°
2026-04-26 00:22 32.32848 -93.87385 44847 ft 569 kts 109°
2026-04-26 00:23 32.30245 -93.78428 44849 ft 582 kts 109°
2026-04-26 00:23 32.27590 -93.69280 44847 ft 594 kts 109°
2026-04-26 00:24 32.24880 -93.59993 44851 ft 599 kts 110°
2026-04-26 00:24 32.22154 -93.50680 44852 ft 600 kts 109°
2026-04-26 00:25 32.19410 -93.41361 44852 ft 600 kts 110°
2026-04-26 00:25 32.16652 -93.32111 44858 ft 600 kts 110°
2026-04-26 00:26 32.13891 -93.22806 44848 ft 600 kts 110°
2026-04-26 00:26 32.11110 -93.13522 44855 ft 600 kts 110°
2026-04-26 00:27 32.08329 -93.04221 44857 ft 600 kts 110°
2026-04-26 00:27 32.06012 -92.96524 44857 ft 598 kts 110°
2026-04-26 00:28 32.03226 -92.87268 44852 ft 600 kts 110°
2026-04-26 00:28 32.00419 -92.77983 44852 ft 601 kts 110°
2026-04-26 00:29 31.96920 -92.69076 44854 ft 598 kts 124°
2026-04-26 00:29 31.91699 -92.61571 44847 ft 588 kts 141°
2026-04-26 00:30 31.85303 -92.55762 44874 ft 581 kts 150°
2026-04-26 00:30 31.78643 -92.50354 44864 ft 584 kts 147°
2026-04-26 00:31 31.72420 -92.44150 44867 ft 588 kts 143°
2026-04-26 00:31 31.66048 -92.38163 44858 ft 584 kts 148°
2026-04-26 00:32 31.59667 -92.32229 44842 ft 587 kts 144°
2026-04-26 00:32 31.50149 -92.23312 44817 ft 585 kts 146°
2026-04-26 00:33 31.43802 -92.17294 44841 ft 587 kts 145°
2026-04-26 00:33 31.37410 -92.11363 44842 ft 586 kts 146°
2026-04-26 00:34 31.31033 -92.05403 44854 ft 587 kts 146°
2026-04-26 00:34 31.27876 -92.02438 44847 ft 570 kts 146°
2026-04-26 00:34 31.24828 -91.99614 44846 ft 551 kts 147°
2026-04-26 00:35 31.18797 -91.94045 44851 ft 558 kts 146°
2026-04-26 00:35 31.15786 -91.91227 44178 ft 550 kts 146°
2026-04-26 00:35 31.12866 -91.88508 43492 ft 540 kts 146°
2026-04-26 00:36 31.09947 -91.85817 42797 ft 530 kts 146°
2026-04-26 00:36 31.07083 -91.83175 42120 ft 522 kts 146°
2026-04-26 00:36 31.04251 -91.80550 41448 ft 516 kts 146°
2026-04-26 00:36 31.01436 -91.77944 40776 ft 515 kts 146°
2026-04-26 00:37 30.98624 -91.75353 40101 ft 517 kts 146°
2026-04-26 00:37 30.95790 -91.72741 39420 ft 520 kts 146°
2026-04-26 00:37 30.92944 -91.70114 38730 ft 523 kts 145°
2026-04-26 00:37 30.90079 -91.67472 37981 ft 525 kts 145°
2026-04-26 00:38 30.87215 -91.64835 37290 ft 525 kts 145°
2026-04-26 00:38 30.84349 -91.62200 36598 ft 525 kts 145°
2026-04-26 00:38 30.81513 -91.59593 35912 ft 525 kts 145°
2026-04-26 00:38 30.78644 -91.56958 35217 ft 525 kts 145°
2026-04-26 00:39 30.75775 -91.54323 34523 ft 525 kts 145°
2026-04-26 00:39 30.72910 -91.51697 33866 ft 524 kts 145°
2026-04-26 00:39 30.70056 -91.49081 33180 ft 522 kts 145°
2026-04-26 00:39 30.67194 -91.46462 32487 ft 524 kts 145°
2026-04-26 00:40 30.64330 -91.43842 31796 ft 524 kts 145°
2026-04-26 00:40 30.61462 -91.41219 31104 ft 525 kts 145°
2026-04-26 00:40 30.58583 -91.38588 30411 ft 527 kts 145°
2026-04-26 00:40 30.55716 -91.35972 29699 ft 521 kts 145°
2026-04-26 00:41 30.52892 -91.33393 29009 ft 514 kts 145°
2026-04-26 00:41 30.50097 -91.30846 28338 ft 507 kts 145°
2026-04-26 00:41 30.47334 -91.28330 27678 ft 501 kts 144°
2026-04-26 00:41 30.44625 -91.25812 27026 ft 496 kts 144°
2026-04-26 00:42 30.41964 -91.23296 26381 ft 490 kts 143°
2026-04-26 00:42 30.39360 -91.20862 25753 ft 484 kts 144°
2026-04-26 00:42 30.36736 -91.18446 25123 ft 479 kts 144°
2026-04-26 00:42 30.34138 -91.16043 24498 ft 474 kts 144°
2026-04-26 00:43 30.31587 -91.13661 23886 ft 468 kts 144°
2026-04-26 00:43 30.29096 -91.11340 23254 ft 449 kts 144°
2026-04-26 00:43 30.26712 -91.09134 22673 ft 428 kts 144°
2026-04-26 00:43 30.24440 -91.07035 22139 ft 409 kts 144°
2026-04-26 00:44 30.22286 -91.05039 21640 ft 394 kts 144°
2026-04-26 00:44 30.20174 -91.03084 21141 ft 384 kts 144°
2026-04-26 00:44 30.18099 -91.01167 20647 ft 380 kts 144°
2026-04-26 00:44 30.16042 -90.99267 20153 ft 377 kts 144°
2026-04-26 00:45 30.14010 -90.97374 19665 ft 374 kts 142°
2026-04-26 00:45 30.12334 -90.95096 19112 ft 374 kts 120°
2026-04-26 00:45 30.11449 -90.92310 18643 ft 368 kts 98°
2026-04-26 00:45 30.11169 -90.89395 18222 ft 364 kts 92°
2026-04-26 00:46 30.10962 -90.86492 17705 ft 360 kts 92°
2026-04-26 00:46 30.10748 -90.83626 17234 ft 357 kts 93°
2026-04-26 00:46 30.10514 -90.80787 16760 ft 353 kts 93°
2026-04-26 00:46 30.10284 -90.77976 16296 ft 350 kts 93°
2026-04-26 00:47 30.10069 -90.75226 15847 ft 346 kts 93°
2026-04-26 00:47 30.09851 -90.72471 15395 ft 343 kts 93°
2026-04-26 00:47 30.09445 -90.69777 14893 ft 342 kts 109°
2026-04-26 00:47 30.08348 -90.67370 14500 ft 337 kts 121°
2026-04-26 00:48 30.07154 -90.65046 14076 ft 335 kts 121°
2026-04-26 00:48 30.05977 -90.62730 13631 ft 332 kts 121°
2026-04-26 00:48 30.04828 -90.60431 13172 ft 328 kts 120°
2026-04-26 00:48 30.03686 -90.58162 12732 ft 325 kts 121°
2026-04-26 00:49 30.02564 -90.55948 12313 ft 322 kts 121°
2026-04-26 00:49 30.01433 -90.53714 11890 ft 320 kts 121°
2026-04-26 00:49 30.00315 -90.51500 11469 ft 317 kts 121°
2026-04-26 00:49 29.99207 -90.49310 11054 ft 314 kts 121°
2026-04-26 00:50 29.98110 -90.47143 10639 ft 311 kts 121°
2026-04-26 00:50 29.97036 -90.45024 10244 ft 308 kts 121°
2026-04-26 00:50 29.95958 -90.42895 9835 ft 306 kts 121°
2026-04-26 00:50 29.94885 -90.40781 9409 ft 303 kts 121°
2026-04-26 00:51 29.93827 -90.38695 9004 ft 301 kts 121°
2026-04-26 00:51 29.92769 -90.36610 8611 ft 303 kts 121°
2026-04-26 00:51 29.91712 -90.34530 8298 ft 300 kts 121°
2026-04-26 00:51 29.90659 -90.32457 7921 ft 299 kts 121°
2026-04-26 00:52 29.89614 -90.30400 7534 ft 296 kts 121°
2026-04-26 00:52 29.88578 -90.28364 7147 ft 293 kts 121°
2026-04-26 00:52 29.87551 -90.26345 6764 ft 291 kts 121°
2026-04-26 00:52 29.86528 -90.24337 6384 ft 289 kts 121°
2026-04-26 00:53 29.85514 -90.22348 5985 ft 286 kts 121°
2026-04-26 00:53 29.84509 -90.20375 5610 ft 284 kts 121°
2026-04-26 00:53 29.83513 -90.18422 5244 ft 282 kts 121°
2026-04-26 00:53 29.82537 -90.16470 4866 ft 280 kts 117°
2026-04-26 00:54 29.82091 -90.14330 4447 ft 280 kts 89°
2026-04-26 00:54 29.82459 -90.12163 4129 ft 276 kts 72°
2026-04-26 00:54 29.83033 -90.10059 3776 ft 275 kts 72°
2026-04-26 00:54 29.83587 -90.07937 3425 ft 277 kts 74°
2026-04-26 00:55 29.84131 -90.05820 3051 ft 274 kts 72°
2026-04-26 00:55 29.85132 -90.03984 2589 ft 271 kts 43°
2026-04-26 00:55 29.86699 -90.02947 2571 ft 258 kts 17°
2026-04-26 00:55 29.88468 -90.02739 2597 ft 255 kts 358°
2026-04-26 00:56 29.90254 -90.02779 2577 ft 263 kts 358°
2026-04-26 00:56 29.92083 -90.02799 2258 ft 249 kts 358°
2026-04-26 00:56 29.93739 -90.02818 1932 ft 230 kts 357°
2026-04-26 00:56 29.95276 -90.02841 1631 ft 210 kts 358°
2026-04-26 00:57 29.96619 -90.02857 1367 ft 181 kts 358°
2026-04-26 00:57 29.97885 -90.02879 1139 ft 180 kts 358°
2026-04-26 00:57 29.99137 -90.02900 913 ft 181 kts 358°
2026-04-26 00:57 30.00369 -90.02919 687 ft 170 kts 359°
2026-04-26 00:58 30.01451 -90.02935 461 ft 143 kts 359°
2026-04-26 00:58 30.02388 -90.02950 285 ft 129 kts 360°
2026-04-26 00:58 30.03279 -90.02962 98 ft 127 kts 359°
2026-04-26 00:58 30.04102 -90.02975 15 ft 107 kts 359°
2026-04-26 00:59 30.04624 -90.02982 12 ft 55 kts 359°
2026-04-26 00:59 30.04789 -90.02936 11 ft 15 kts 89°
2026-04-26 00:59 30.04729 -90.02874 11 ft 15 kts 178°
2026-04-26 00:59 30.04599 -90.02872 12 ft 23 kts 181°
2026-04-26 01:00 30.04412 -90.02869 12 ft 31 kts 179°
2026-04-26 01:00 30.04176 -90.02865 12 ft 34 kts 181°
2026-04-26 01:00 30.03942 -90.02863 11 ft 32 kts 179°
2026-04-26 01:00 30.03762 -90.02860 11 ft 21 kts 180°
2026-04-26 01:01 30.03624 -90.02859 11 ft 18 kts 180°
2026-04-26 01:01 30.03529 -90.02830 11 ft 12 kts 117°
2026-04-26 01:01 30.03490 -90.02764 11 ft 5 kts 178°
2026-04-26 01:01 30.03475 -90.02777 11 ft 0 kts 228°
2026-04-26 01:02 30.03476 -90.02777 11 ft 0 kts 228°